Flag for Switzerland Weather past 2 weeks in Olten, Solothurn, Switzerland

Now
81 °F

Warm.


Feels Like: 82 °F
Forecast: 60 / 74 °F
Wind: 6 mph from Southwest

Location: Wynau

Current Time: Aug 31, 2015 at 1:19:13 PM

Latest Report: Aug 31, 2015 at 12:00 PM


Visibility: N/A

Pressure: 29.97 "Hg

Humidity: 50%

Dew point: 60 °F

Location of OltenLocation

Historic Weather in Olten — Graph

°F

Olten temperature yesterday

Maximum temperature yesterday: 92 °F (at 4:00 PM)
Minimum temperature yesterday: 64 °F (at 11:00 PM)
Average temperature yesterday: 75 °F

Past Weeks' High & Low Weather Summary

 TemperatureHumidityPressure
High92 °F (Aug 30, 4:00 PM)100% (Aug 20, 4:00 AM)30.26 "Hg (Aug 20, 4:00 AM)
Low47 °F (Aug 26, 7:00 AM)23% (Aug 30, 5:00 PM)29.71 "Hg (Aug 24, 7:00 AM)
Average65 °F74%30.02 "Hg
* Reported Aug 16 12:00 Noon — Aug 31 12:00 Noon, Olten, Weather by CustomWeather, © 2015

Note: Actual official high and low records may vary slightly from our data, if they occured in-between our weather recording intervals... More about our weather records

Advertising

Olten weather history for previous 24 hours

 ConditionsComfort  
Time TempWeatherWind HumidityBarometerVisibility
12:00 PM
Mon, Aug 31
81 °FWarm.6 mph50%29.97 "HgN/A
11:00 AM77 °FWarm.2 mph58%29.99 "HgN/A
10:00 AM72 °FMild.1 mph72%30.02 "HgN/A
9:00 AM66 °FMild.No wind83%30.04 "HgN/A
8:00 AM61 °FCool.No wind89%30.06 "HgN/A
7:00 AM59 °FCool.1 mph94%30.06 "HgN/A
6:00 AM60 °FCool.1 mph92%30.06 "HgN/A
5:00 AM60 °FCool.1 mph92%30.06 "HgN/A
4:00 AM60 °FCool.2 mph94%30.06 "HgN/A
3:00 AM61 °FCool.No wind93%30.04 "HgN/A
2:00 AM61 °FCool.1 mph92%30.05 "HgN/A
1:00 AM62 °FCool.No wind89%30.06 "HgN/A
12:00 AM64 °FMild.2 mph84%30.07 "HgN/A
11:00 PM
Sun, Aug 30
64 °FMild.2 mph87%30.07 "HgN/A
10:00 PM66 °FMild.2 mph76%30.06 "HgN/A
9:00 PM71 °FMild.2 mph55%30.03 "HgN/A
8:00 PM77 °FWarm.1 mph44%29.99 "HgN/A
7:00 PM83 °FPleasantly warm.1 mph40%29.97 "HgN/A
6:00 PM90 °FHot.3 mph25%29.95 "HgN/A
5:00 PM90 °FHot.3 mph23%29.96 "HgN/A
4:00 PM92 °FHot.6 mph27%29.97 "HgN/A
3:00 PM90 °FHot.2 mph33%29.99 "HgN/A
2:00 PM87 °FPleasantly warm.6 mph35%30.03 "HgN/A
1:00 PM85 °FPleasantly warm.5 mph37%30.06 "HgN/A
Weather by CustomWeather, © 2015

See weather overviewHow to use our weather pages